Location: Unspecified
(64.9000°N, 0.0000°E)
Time: 03:52:15
(UTC+00:00)

Altair - Pass Details

Date: 23 June 2019
Orbit: 1501 x 1683 km, 47.2° (Epoch: 17 July)

Event Time Altitude Azimuth Distance (km) Brightness Sun altitude
Rises 00:37:23 0° 264° (W) 4,815 10.0 -1.4°
Reaches altitude 10° 00:41:21 10° 251° (WSW) 3,858 9.3 -1.3°
Maximum altitude 00:48:14 22° 206° (SSW) 3,050 8.5 -1.2°
Drops below altitude 10° 00:55:14 10° 161° (SSE) 3,929 9.1 -1.1°
Sets 00:59:21 0° 147° (SSE) 4,927 9.7 -1.0°
